Temp
22 22 22 21 21 21 21 20 20 20 20 20 20 20 20 20 20 20 19 19 19 19 19 19 19 19 19 19 19 19 19 19 19 19 19 19 19 19 19 18 18 19 18 18 19 18 18 18 18 18 17 17 18 18 19 19 19 19 19 19 19 19 19 19 21 22 23 23 23 23 23 23 23 23 23 23 23 23 22 22 23 23 23 23 23
22 22 22 21 21 21 21 21 20 20 20 20 20 20 20 20 20 19 20 20 20 19 19 19 19 19 19 19 19 19 19 19 19 19 19 19 19 18 18 18 18 18 18 18 18 18 18 18 18 18 18 18 18 18 18 19 19 20 19 19 20 20 20 20 20 22 23 23 23 23 23 23 23 23 23 23 23 23 23 23 23 23 23 23 23
23 22 21 21 21 21 21 20 20 20 21 21 21 21 21 21 20 20 20 20 20 19 19 19 19 19 19 19 19 19 19 19 19 19 19 18 18 18 18 18 18 18 18 18 18 18 18 18 18 18 18 18 18 18 19 19 19 19 19 19 19 20 20 20 20 21 22 23 23 23 23 23 23 23 23 22 22 23 23 23 23 23 23 23 23
24 22 22 21 21 21 21 21 21 21 21 21 21 22 22 22 21 21 20 20 20 20 19 19 19 19 19 19 19 19 19 19 19 19 19 18 18 18 18 18 18 18 18 18 18 18 18 18 18 18 18 18 18 18 18 19 18 18 19 19 18 18 19 19 19 20 22 23 23 23 23 23 22 23 23 22 22 22 23 23 23 23 22 23 23
24 23 22 22 22 21 21 21 21 21 21 21 22 22 22 22 21 21 21 20 20 20 20 20 19 19 19 19 19 19 19 19 19 19 19 18 18 18 17 17 17 17 17 17 18 18 18 18 17 17 17 17 18 18 18 19 19 18 18 18 18 18 18 19 19 20 21 22 23 23 23 22 22 22 22 22 22 22 22 22 23 22 22 23 23
24 23 23 23 22 21 21 21 21 21 21 21 21 21 21 21 21 21 21 21 21 21 20 20 20 19 19 19 19 19 19 19 19 19 18 18 18 17 17 17 17 17 17 17 17 18 18 17 17 17 17 17 17 17 18 19 19 18 18 18 18 18 18 19 19 20 20 22 22 23 23 22 22 22 22 22 23 23 23 22 22 22 22 23 23
23 22 22 23 22 21 21 21 21 21 21 21 21 21 21 21 21 21 21 21 21 21 21 20 20 20 20 20 19 19 19 19 19 19 18 18 17 17 17 17 17 17 17 17 17 17 17 17 17 16 16 16 17 17 17 18 19 19 18 18 18 18 18 19 20 20 20 21 22 22 23 22 22 23 22 22 22 22 23 23 23 22 22 22 23
22 22 22 22 21 21 21 21 21 21 21 21 20 20 21 21 20 20 21 21 21 21 21 20 20 20 20 20 20 19 19 19 19 19 18 18 18 17 17 17 17 17 17 17 17 17 17 16 15 15 15 15 15 16 16 17 18 18 18 18 18 18 18 19 20 20 21 22 21 22 23 22 22 22 22 22 22 22 22 23 23 23 22 22 23
22 22 22 21 21 21 21 21 21 21 21 20 20 20 20 20 20 20 20 21 21 21 20 20 20 20 20 20 20 19 19 19 19 18 18 18 17 17 17 17 17 17 17 17 17 16 16 15 14 14 14 14 14 15 15 16 17 17 17 18 18 18 19 20 20 20 21 21 21 22 22 22 22 22 22 22 22 22 22 22 23 23 22 21 22
22 21 21 21 21 21 21 21 21 21 21 20 20 20 20 20 21 21 20 21 21 20 20 20 20 20 20 20 20 20 19 19 18 18 18 18 17 17 17 17 17 17 17 17 17 16 15 14 14 14 13 13 13 14 15 16 16 17 17 17 17 18 20 20 20 20 20 20 21 22 22 22 22 22 23 23 22 22 23 23 23 23 22 22 23
21 21 21 21 21 21 21 21 21 21 21 20 20 20 20 21 21 20 20 20 20 20 20 20 20 20 20 20 20 20 20 19 18 18 18 17 17 16 17 17 17 17 17 17 16 16 14 13 13 14 13 13 13 14 14 14 15 16 16 17 17 17 18 19 19 19 19 19 21 22 22 23 23 23 23 23 23 23 23 23 23 23 23 23 24
22 21 21 21 21 21 21 21 21 21 21 20 20 20 21 21 20 20 20 20 20 20 20 20 20 20 20 20 20 20 20 19 19 18 18 17 17 16 16 17 17 17 17 17 16 15 14 13 13 13 13 13 13 13 13 13 14 15 15 16 17 17 17 18 18 18 19 20 21 22 22 22 23 23 23 23 23 23 23 23 23 23 23 23 23
22 22 22 21 21 21 21 21 21 21 21 20 20 20 21 20 21 21 20 20 20 20 20 20 20 20 20 20 20 20 20 19 19 18 17 17 17 16 16 16 17 17 16 16 15 14 14 14 13 13 13 13 13 13 13 13 13 14 14 15 16 16 17 18 17 18 19 20 21 21 22 22 22 23 23 23 23 23 23 23 23 23 23 23 23
22 22 22 22 21 21 21 21 21 21 21 20 20 20 21 21 21 21 21 21 20 20 20 20 20 20 20 20 20 20 20 19 19 18 17 17 17 17 16 16 17 16 16 16 15 14 15 14 13 14 13 13 13 13 13 12 12 12 13 14 15 16 17 17 17 17 18 18 19 20 21 21 22 22 22 22 23 23 23 23 23 23 23 23 23
22 22 22 22 21 21 21 21 21 21 21 20 20 21 21 21 21 21 21 21 21 20 20 20 20 20 20 20 20 20 20 20 19 18 18 17 17 17 17 17 17 17 16 15 14 14 15 14 14 14 14 13 13 13 13 12 12 12 13 14 15 16 17 18 17 17 17 17 18 19 20 20 21 21 22 22 22 22 22 22 22 22 23 23 23
22 22 22 22 22 21 21 21 21 21 21 21 21 21 21 21 21 21 20 20 21 21 21 21 21 20 21 21 20 20 20 20 19 19 18 17 17 17 17 17 17 17 16 15 15 15 15 14 14 15 14 13 13 13 13 12 12 12 13 14 15 16 17 18 18 18 18 18 18 19 20 20 20 21 21 21 21 22 21 21 21 21 22 23 23
22 22 22 22 22 22 22 22 21 21 21 21 21 21 21 21 21 21 20 20 21 21 21 21 21 21 21 21 21 20 20 20 19 19 18 18 17 17 17 17 17 16 16 16 15 15 15 14 14 14 14 14 14 14 13 13 12 12 13 14 14 15 17 18 18 18 18 18 18 18 19 20 20 20 20 20 20 21 21 20 20 20 21 22 22
23 23 22 22 22 22 22 22 21 21 21 21 21 21 21 21 21 21 20 20 21 21 21 21 21 21 21 21 21 20 20 20 20 19 18 18 17 17 17 17 17 16 16 16 16 16 15 15 15 14 14 15 15 15 14 13 13 12 12 13 14 15 16 17 18 19 18 18 18 18 18 19 19 20 20 20 20 19 20 20 21 21 22 22 22
23 23 23 22 22 22 22 22 21 21 21 21 21 21 21 21 21 21 21 21 21 21 21 21 21 21 21 21 21 20 20 20 20 19 18 18 18 17 16 16 17 16 16 16 16 16 16 16 16 15 15 15 15 15 15 14 13 12 12 13 13 14 14 15 17 18 18 18 18 18 18 18 18 19 19 20 20 19 19 21 21 21 22 22 23
23 23 23 22 22 22 22 21 21 21 21 21 21 21 21 21 21 21 21 21 21 21 21 21 20 21 21 21 21 21 20 20 19 19 18 18 18 17 16 16 16 16 16 16 16 16 16 16 16 16 16 15 15 15 15 14 13 13 12 12 13 13 13 13 15 17 17 18 18 18 18 18 18 18 19 19 19 19 19 20 21 21 21 22 23
23 22 22 22 22 22 22 21 21 21 21 21 21 21 21 21 21 21 21 21 21 20 20 20 20 20 20 21 21 21 20 20 19 18 18 18 17 17 17 16 16 15 15 15 15 16 16 16 16 16 16 16 16 15 15 15 14 13 13 13 13 13 13 14 15 16 17 18 18 18 18 18 18 18 19 19 19 19 20 20 20 21 21 22 23
22 22 22 22 22 22 22 21 21 21 21 21 21 21 21 21 21 21 21 21 20 20 20 20 20 20 20 20 21 20 19 19 18 17 17 17 17 17 17 17 16 16 14 14 15 16 16 16 16 16 16 16 16 15 15 15 14 13 13 13 13 14 14 14 15 16 17 18 19 18 18 18 18 18 19 18 18 19 20 20 20 21 21 22 22
22 22 22 22 21 21 21 21 21 20 21 21 20 20 21 21 20 20 20 20 20 20 19 19 19 20 20 21 21 20 19 19 18 17 17 17 17 17 17 17 17 16 15 15 16 16 16 16 17 16 16 16 16 15 16 15 14 14 14 14 14 14 14 14 15 16 16 18 18 18 18 18 18 18 18 18 19 19 20 20 20 20 20 20 21
22 22 22 21 21 21 21 21 21 20 20 20 20 20 21 21 20 20 20 20 20 19 19 20 20 20 20 20 21 21 20 19 18 17 17 17 17 17 17 17 17 16 16 16 16 16 16 17 17 17 17 16 16 15 16 16 15 15 14 14 14 14 14 14 14 14 15 16 18 18 18 18 18 18 18 19 19 19 19 20 20 20 19 19 19
22 22 21 21 21 21 21 21 21 20 20 20 20 20 21 21 21 20 20 20 20 19 19 20 20 20 20 20 20 20 20 19 18 17 16 16 17 17 17 17 17 17 17 17 17 17 17 17 17 17 17 16 15 15 16 16 15 15 15 14 14 14 14 14 14 14 14 15 16 17 18 18 18 18 19 19 19 19 19 19 19 19 19 19 19
22 21 21 22 21 21 21 21 21 20 20 20 21 21 21 21 21 20 20 20 20 19 19 20 20 20 20 20 20 20 20 19 18 16 15 15 16 17 17 17 17 17 17 17 17 18 18 18 17 17 17 16 16 15 16 16 16 15 15 15 14 14 14 13 13 14 14 14 14 15 17 18 19 19 19 19 19 18 18 18 18 18 18 18 18
21 21 21 22 21 21 21 21 21 21 20 21 21 21 21 21 21 20 20 20 20 20 20 20 20 20 20 20 19 19 19 19 17 14 14 14 15 16 16 16 16 17 17 17 17 18 18 18 17 17 17 16 16 16 15 15 16 15 15 15 15 14 14 14 13 13 14 14 14 14 15 16 17 18 19 19 18 18 18 18 18 18 18 18 18
21 21 21 21 21 21 21 20 20 20 20 21 21 21 21 21 21 20 19 19 19 19 19 19 19 19 19 19 18 18 18 17 14 12 12 13 14 15 15 15 16 16 16 16 17 18 18 18 18 18 18 17 16 16 16 15 15 15 15 15 15 15 15 14 14 14 14 14 14 14 15 15 15 16 17 18 18 18 18 17 18 18 18 18 17
21 21 21 21 21 21 21 21 21 20 20 21 20 19 19 20 19 18 17 17 17 18 18 18 17 17 18 17 15 16 16 14 12 11 12 12 13 14 14 14 15 16 16 16 17 17 18 18 19 19 18 18 17 17 16 16 15 15 15 15 15 15 15 15 14 14 14 14 14 14 14 15 15 15 16 16 17 17 17 17 17 17 17 17 17
21 22 22 22 22 22 22 22 22 21 21 21 19 17 17 18 17 17 16 16 16 15 16 16 15 15 16 15 13 12 11 11 11 11 12 13 13 13 13 13 15 16 16 16 16 17 18 19 19 18 18 18 17 17 17 16 15 15 15 15 14 15 15 14 14 14 14 14 14 14 14 14 14 14 15 15 15 16 16 16 17 17 17 17 17
21 22 22 22 22 22 22 22 22 21 21 21 19 16 16 15 15 15 15 14 14 14 14 14 14 13 14 14 12 11 10 11 11 12 12 13 13 13 13 14 14 15 16 16 17 17 18 18 18 17 17 17 16 16 15 15 14 14 14 14 14 14 14 14 14 14 14 14 14 14 14 14 14 14 14 14 15 15 15 15 15 15 16 16 16
21 22 22 22 21 20 20 21 21 21 20 20 18 17 16 14 12 12 12 12 12 13 13 12 12 11 11 12 12 11 11 11 12 12 13 13 13 13 13 14 15 15 16 16 17 17 17 16 16 15 15 15 15 14 14 14 13 13 13 13 12 12 13 14 14 14 14 14 14 14 14 14 14 14 14 14 14 14 14 15 14 14 14 14 14
21 21 21 21 20 20 20 20 20 20 20 20 19 17 16 15 13 11 11 10 10 11 11 11 11 10 10 10 10 10 10 11 12 13 13 13 13 13 13 13 14 15 15 16 16 16 15 15 14 14 14 14 13 13 13 13 13 12 12 12 12 11 12 13 13 13 14 14 14 14 14 14 14 14 14 14 14 14 14 15 15 14 14 14 14
20 20 20 20 20 20 20 20 20 20 20 19 19 18 16 15 14 12 11 11 10 10 10 10 11 10 10 9 10 10 10 11 11 12 12 12 13 13 13 13 13 14 13 14 14 14 14 14 13 13 12 12 12 12 12 12 12 11 11 11 11 11 11 12 12 12 12 13 13 13 14 14 14 14 14 15 14 14 14 15 15 15 14 14 14
19 19 18 18 19 19 19 19 19 20 19 18 18 17 16 15 14 13 13 13 12 12 11 11 11 11 10 9 9 10 10 10 11 11 12 12 12 13 14 15 14 14 13 13 13 13 12 12 12 11 11 11 11 11 11 11 11 11 11 11 11 11 11 11 10 10 11 11 12 12 12 13 14 14 14 15 15 14 14 14 14 14 14 14 14
19 19 19 18 18 19 19 19 19 18 18 17 17 16 15 15 14 14 14 14 14 15 14 13 12 12 11 10 9 10 10 10 10 10 11 11 12 13 14 14 14 13 12 12 12 12 11 11 11 10 10 10 9 10 10 10 10 10 10 10 10 10 10 10 10 10 11 11 11 11 11 12 13 13 14 14 14 14 14 14 14 14 14 14 15
18 19 19 18 18 18 18 17 17 16 16 16 16 15 14 14 14 15 15 15 15 15 15 14 14 13 12 11 10 10 10 10 10 10 10 11 11 12 13 12 12 12 12 11 11 11 11 10 10 9 9 8 8 8 8 9 9 9 9 10 10 9 9 9 9 10 11 11 11 11 12 12 12 12 13 13 14 14 14 14 14 14 14 14 14
17 17 17 17 17 17 17 16 16 15 15 15 15 15 14 14 14 14 14 14 14 15 14 14 13 13 12 11 11 11 11 11 11 12 11 11 11 11 11 11 11 11 10 10 10 10 10 10 9 9 8 8 7 7 7 7 8 8 8 9 9 9 9 8 8 9 10 11 11 11 12 12 12 12 12 12 13 13 14 14 14 14 14 15 15
16 16 15 15 15 16 16 16 15 15 15 15 15 14 13 13 12 12 12 12 13 13 13 13 12 11 10 10 10 11 12 11 11 11 11 10 10 10 10 10 9 9 9 8 8 9 9 9 9 9 8 8 7 7 6 6 6 6 7 8 8 8 8 8 7 8 9 10 10 11 11 12 12 12 12 12 12 13 13 14 14 14 14 15 15
16 15 14 14 14 15 15 15 15 14 14 14 13 13 12 12 11 11 11 12 12 12 12 12 11 10 8 8 9 10 11 11 11 10 10 10 9 9 9 9 8 8 7 7 7 8 8 8 8 8 8 7 7 7 6 6 6 6 6 6 6 6 7 7 6 6 7 8 8 9 10 10 11 12 12 12 12 12 12 13 13 14 14 15 15
15 15 14 13 14 14 13 13 13 13 13 13 12 12 12 12 11 11 12 12 13 13 12 11 10 8 7 7 8 9 10 10 10 9 9 9 9 8 8 8 7 8 7 7 7 7 7 8 7 7 7 7 7 7 6 6 6 6 6 5 5 5 5 5 5 5 5 6 7 7 8 9 10 11 11 11 12 12 12 12 12 13 14 14 14
14 14 13 13 13 13 13 13 13 13 13 12 12 12 12 12 12 12 12 13 14 13 12 10 9 7 6 6 7 8 9 9 9 8 8 8 7 7 7 6 6 7 7 7 6 6 7 7 7 6 6 6 6 6 6 6 6 6 5 5 4 4 4 4 4 3 4 5 5 6 6 7 8 9 10 10 10 11 11 11 12 12 12 13 13
13 13 13 13 12 12 13 13 13 13 13 12 12 12 12 12 12 12 13 13 13 13 11 10 9 7 6 6 7 8 8 8 8 8 8 7 7 6 6 5 5 5 5 5 5 6 6 6 6 6 5 5 5 5 5 5 5 5 5 5 4 3 3 3 3 3 3 3 4 5 6 6 7 8 9 9 10 10 10 10 10 11 11 12 13
12 12 12 12 12 12 12 12 13 12 12 11 11 11 11 11 12 12 12 12 12 11 11 10 9 9 8 7 7 8 7 7 7 7 7 6 6 5 5 4 4 4 4 4 4 4 5 5 5 5 5 4 4 4 4 4 4 4 4 4 4 3 3 2 2 2 2 2 3 4 5 6 6 7 8 8 9 10 10 9 9 10 10 11 12
12 12 12 12 12 12 12 12 12 12 11 11 11 11 11 12 12 12 11 11 10 10 10 10 10 9 9 8 8 8 7 6 6 6 6 6 5 5 4 4 4 5 5 4 4 3 4 4 4 5 5 4 4 4 4 4 3 3 3 3 3 2 2 2 2 2 2 2 3 4 5 6 6 6 7 8 8 9 10 9 9 9 9 9 10
13 13 13 13 13 13 13 12 12 12 12 12 12 11 11 12 11 11 10 10 10 10 10 10 10 10 9 8 8 8 7 7 6 6 6 6 6 6 6 5 5 5 5 5 5 4 4 4 4 4 4 4 4 4 4 4 3 3 3 2 2 2 2 2 2 2 2 2 3 3 4 6 6 6 7 7 8 8 8 8 9 9 9 9 8
12 12 12 12 12 12 11 11 11 12 12 11 11 11 11 11 11 10 10 10 10 10 11 11 10 10 10 9 9 9 8 8 8 7 6 6 5 6 6 6 6 6 5 5 5 5 5 5 4 4 4 4 4 3 3 3 3 3 2 1 1 2 3 3 2 2 2 3 3 4 5 5 6 6 7 7 7 8 8 8 8 8 9 9 8
12 12 12 12 12 12 12 12 12 12 12 11 11 11 11 10 10 10 10 10 10 10 11 10 10 10 10 10 9 9 9 9 9 9 8 7 6 6 5 6 6 5 5 5 5 4 4 4 4 4 4 4 3 3 3 3 3 2 1 1 1 2 3 3 2 2 3 3 4 5 5 5 6 6 6 6 7 7 8 8 8 8 8 8 8
13 13 13 13 13 13 13 12 12 12 12 12 11 11 11 10 10 10 10 10 10 10 10 10 10 10 9 9 9 9 8 8 8 8 8 7 7 6 5 5 5 5 5 5 4 4 4 4 4 4 4 4 3 3 3 3 2 1 1 1 2 2 2 3 3 3 3 3 4 5 5 5 5 6 6 6 6 7 7 7 8 8 8 8 7
14 14 14 14 13 13 12 12 12 12 12 11 11 11 11 10 10 10 10 10 10 10 10 10 9 9 9 8 8 8 8 8 8 7 7 7 6 6 5 5 5 5 5 5 4 4 4 4 4 4 4 3 3 3 3 2 1 1 1 1 2 2 2 3 3 3 3 3 3 4 5 5 5 6 6 6 6 6 6 6 7 7 8 8 7
13 13 13 13 12 12 12 12 11 11 11 11 11 11 10 10 10 10 10 10 10 10 9 9 9 9 9 8 8 7 7 7 7 7 7 6 6 5 5 5 5 5 5 5 4 4 4 4 4 4 4 3 3 3 3 2 1 1 1 1 1 2 2 2 3 3 3 3 3 4 5 5 5 5 5 5 5 6 6 6 6 7 8 8 8
Height
821 822 822 823 823 822 823 822 822 822 821 821 821 820 819 818 817 816 815 814 812 811 810 809 808 808 807 806 806 805 804 803 802 801 800 799 798 796 795 793 792 790 788 786 784 783 781 779 777 776 775 773 771 769 769 769 768 768 768 768 770 771 771 771 767 763 764 766 767 767 768 770 770 769 769 770 771 771 771 772 773 772 773 774 775
819 820 820 821 821 821 821 821 821 821 820 820 819 818 817 816 816 815 813 812 811 810 809 808 807 806 805 805 804 804 803 802 801 800 799 798 796 795 794 792 791 789 787 785 783 781 779 777 774 772 770 768 766 765 764 764 764 763 763 763 764 764 765 764 762 760 760 761 762 763 764 766 765 765 766 767 767 768 768 769 769 769 769 771 772
817 818 819 819 819 819 820 820 819 819 819 818 817 816 815 814 814 813 812 811 809 808 808 806 806 805 804 803 803 802 801 800 799 798 797 796 795 794 792 791 789 787 785 783 781 779 776 774 771 769 766 764 761 760 760 758 758 758 758 759 759 759 759 759 758 757 756 756 758 758 759 761 761 761 762 763 764 765 765 766 766 766 766 767 769
815 816 817 817 817 818 818 818 818 818 817 816 815 815 813 813 812 811 810 809 808 807 806 805 804 803 802 802 801 801 800 799 798 797 796 795 793 792 790 789 788 786 784 781 779 777 773 770 768 765 763 760 756 755 754 753 752 752 753 754 755 755 755 754 754 754 753 752 752 753 755 756 757 757 759 760 761 762 763 763 764 763 763 764 766
814 814 815 815 816 816 816 816 816 816 815 815 814 813 812 811 811 810 809 808 806 805 805 804 803 802 801 800 800 799 798 797 796 795 794 793 792 790 788 787 786 784 782 779 777 774 771 768 765 762 760 757 753 750 749 748 746 746 747 748 749 750 750 750 750 751 749 747 748 749 751 752 753 754 755 756 758 759 760 760 760 760 760 761 763
812 812 813 813 814 815 815 815 814 814 814 813 813 812 811 810 809 808 807 806 804 803 803 802 801 800 799 798 798 797 796 795 794 793 792 791 790 788 786 785 784 782 780 777 775 772 769 766 762 759 756 754 750 746 745 743 742 740 741 741 742 744 745 745 745 745 744 742 743 745 747 748 749 750 750 752 754 755 756 757 757 757 757 757 759
810 811 812 812 812 813 813 813 813 813 812 812 812 811 810 809 808 807 806 804 803 802 801 800 799 798 797 796 795 795 793 793 792 791 790 789 788 786 785 783 782 780 778 775 773 770 767 764 761 757 753 750 747 743 739 738 737 735 735 736 736 738 740 739 739 740 739 738 739 741 742 744 745 745 746 748 750 751 752 753 752 753 753 753 754
809 810 810 810 811 811 811 811 811 811 811 810 810 809 809 808 807 806 805 803 801 800 799 798 797 796 795 794 793 792 791 790 789 789 788 787 786 784 783 781 779 777 776 773 771 768 765 763 759 755 751 747 744 740 735 734 733 731 731 732 732 733 734 733 733 734 734 734 735 737 738 740 740 741 743 744 746 746 748 749 748 748 750 751 750
807 808 808 809 809 809 810 810 809 810 809 808 808 808 807 806 805 804 803 801 800 798 797 796 795 794 793 792 791 790 789 788 787 787 786 785 784 783 781 779 777 775 773 771 769 767 764 761 757 752 748 744 740 735 731 730 730 728 727 727 727 728 728 728 728 730 731 730 731 733 734 735 736 737 738 738 740 741 743 745 744 745 747 748 747
805 806 806 807 807 808 808 808 808 808 807 807 807 806 805 804 803 802 800 799 798 797 796 795 793 792 791 790 789 788 787 786 785 784 784 783 782 781 779 777 775 773 771 769 767 765 762 758 754 750 745 740 735 731 728 728 727 726 724 723 723 723 722 723 724 726 727 726 727 728 729 729 730 732 733 733 735 738 739 741 741 741 743 744 743
803 804 804 805 806 806 806 806 806 806 805 805 805 804 803 802 801 800 798 797 796 795 794 793 791 790 789 788 787 786 784 783 782 782 781 780 780 779 777 776 773 771 770 767 765 762 759 756 752 747 743 739 734 729 727 725 724 723 722 720 720 720 719 719 720 721 723 723 722 723 723 724 725 727 729 730 732 733 735 736 737 737 738 739 739
801 802 802 803 804 804 804 804 804 804 804 803 803 802 802 801 799 798 797 795 794 793 792 791 789 788 787 786 785 784 782 781 780 780 779 778 778 777 775 774 771 769 768 766 763 760 756 753 749 746 742 738 734 730 725 722 720 719 717 716 715 715 716 717 717 717 719 719 718 718 719 720 721 723 724 725 727 729 730 732 732 733 734 735 736
798 799 800 801 801 801 802 802 802 802 801 802 801 800 800 799 797 796 795 794 793 791 790 789 787 786 785 784 783 782 781 780 779 778 777 776 776 774 773 772 769 767 766 764 761 758 755 752 748 744 740 737 733 729 725 721 718 715 713 711 710 709 710 711 713 714 715 715 714 713 715 716 717 718 720 722 724 725 726 727 728 729 730 731 732
796 797 797 798 799 799 800 800 800 800 799 799 799 798 798 797 796 795 793 792 791 789 788 787 785 784 783 782 781 780 779 778 777 776 775 774 773 772 771 770 767 765 764 762 760 756 753 751 747 743 739 736 733 729 725 721 717 714 711 708 706 705 704 705 706 708 710 711 710 710 711 713 713 714 716 718 720 721 721 722 724 725 726 728 730
793 794 795 796 796 797 797 797 797 797 797 797 797 796 796 795 794 793 791 790 789 787 786 785 783 782 781 780 779 777 777 776 775 774 772 772 771 770 768 767 765 763 761 760 758 755 752 749 746 742 738 735 732 729 725 722 718 714 710 706 704 701 700 699 700 701 703 704 705 706 707 709 710 711 713 715 716 717 719 720 721 723 724 725 727
791 792 792 793 794 794 794 794 794 794 795 795 794 794 794 793 792 791 790 789 787 786 784 783 781 780 779 778 777 775 774 773 772 771 770 770 769 768 766 765 763 761 759 757 756 753 751 748 745 741 737 734 731 728 726 723 718 714 710 705 701 698 695 694 694 694 695 697 699 701 703 705 707 708 710 712 712 714 717 718 719 721 722 722 723
788 789 790 790 791 791 791 791 792 792 792 792 792 792 791 791 790 789 788 787 785 784 783 781 780 779 777 776 775 774 773 772 770 770 769 768 767 766 765 763 761 759 757 755 754 751 749 747 744 740 736 733 730 727 725 722 717 714 709 704 700 695 691 689 689 689 690 691 694 696 698 701 703 705 707 709 710 711 713 714 716 719 719 718 718
786 787 787 787 788 788 789 789 789 789 789 790 790 789 789 788 788 787 786 785 784 783 781 780 779 778 776 774 773 772 771 770 769 768 767 766 765 764 763 761 759 757 754 752 751 749 746 744 742 739 736 732 728 725 723 720 716 712 708 704 699 694 689 686 684 683 684 686 688 691 694 696 699 701 703 705 707 708 709 710 712 714 714 714 715
783 784 784 785 785 785 786 786 786 787 787 787 787 787 787 786 786 785 785 783 782 781 780 779 778 776 774 772 771 770 769 768 767 766 765 765 764 762 761 759 757 755 752 750 748 746 744 742 739 737 735 731 728 724 721 719 716 712 708 703 698 692 687 684 681 679 679 680 682 685 688 691 694 696 698 701 703 704 705 706 708 710 709 709 711
779 781 782 782 782 782 783 783 784 784 785 785 785 785 784 784 783 783 783 781 780 780 779 778 776 775 773 771 769 768 768 767 766 765 764 763 762 760 759 757 755 753 751 749 746 743 741 739 737 735 732 729 727 724 721 718 716 712 708 703 697 691 685 680 675 674 674 674 675 678 682 685 688 691 693 696 698 700 702 703 705 706 707 706 707
777 778 779 779 780 780 780 781 781 782 782 782 782 783 782 782 782 782 781 780 779 779 779 777 776 774 772 770 768 767 766 766 765 764 762 761 760 759 757 755 753 751 749 747 745 741 739 737 734 732 730 727 725 722 720 717 715 711 707 703 697 690 683 676 671 669 667 667 668 671 675 679 682 684 687 690 692 695 697 699 701 703 704 704 704
774 775 776 777 777 777 778 778 779 780 780 780 780 780 780 780 780 780 779 779 778 778 778 776 775 773 770 768 766 765 765 764 763 762 761 760 758 757 756 754 752 749 747 745 743 740 737 735 732 730 728 726 724 722 719 717 714 710 706 701 695 688 681 674 669 665 662 661 663 666 669 672 675 678 680 683 686 689 692 694 696 699 700 701 702
771 772 773 774 775 775 775 776 777 778 778 778 778 778 778 778 778 778 778 778 777 777 776 775 773 771 769 767 765 764 763 763 762 761 760 758 757 755 754 752 750 748 746 743 741 738 735 733 731 728 726 725 723 721 718 716 713 709 705 700 693 687 681 674 668 664 660 658 659 661 663 666 669 671 673 676 680 684 687 689 692 694 697 699 700
769 769 770 771 772 773 773 774 775 775 776 776 776 775 776 776 776 776 776 776 776 775 774 773 771 769 767 766 764 762 762 761 760 759 758 757 756 754 752 751 749 747 744 742 739 737 734 732 729 727 725 724 722 720 717 715 711 707 703 699 693 687 681 675 670 666 661 658 657 657 658 661 664 665 668 671 675 679 682 685 688 691 693 696 698
765 766 767 769 770 770 771 771 772 772 773 773 773 773 773 773 773 774 774 774 774 773 772 771 770 768 766 765 763 762 761 761 760 759 757 756 754 752 751 749 748 746 743 740 738 736 733 731 729 726 724 723 721 719 716 714 711 707 703 698 693 688 682 677 673 669 666 662 658 655 655 657 658 660 664 667 671 675 678 681 685 688 691 694 696
762 763 764 766 767 767 768 768 769 769 770 770 770 770 770 770 770 771 771 772 771 771 771 769 768 767 765 764 762 761 760 760 760 759 756 754 752 751 749 748 746 744 742 739 737 734 732 730 728 726 724 722 720 718 716 714 711 707 703 699 695 690 686 682 678 675 672 668 664 659 656 655 655 658 662 665 668 671 674 678 682 685 688 691 693
759 760 762 763 764 764 765 765 765 766 767 767 767 767 767 767 768 769 769 769 769 769 769 768 767 766 765 763 762 761 760 760 760 758 755 753 751 749 748 747 745 743 741 739 736 733 731 729 727 725 724 722 720 719 717 714 711 708 705 701 697 694 690 687 685 681 676 673 670 665 659 657 657 658 659 661 664 668 671 675 679 683 686 689 691
757 759 760 761 761 762 762 763 763 764 765 764 764 764 764 765 765 766 767 767 767 767 767 767 767 766 765 763 762 761 760 760 759 757 755 752 750 748 747 746 744 742 741 738 735 732 730 728 726 724 723 722 721 719 717 714 712 709 707 703 700 697 693 690 687 684 680 678 675 671 665 663 662 660 658 659 663 666 669 673 678 681 683 686 687
756 757 757 758 759 760 760 760 760 761 761 761 761 761 762 763 764 765 765 766 766 767 766 766 767 766 765 764 764 762 761 761 759 757 755 752 750 748 746 745 743 742 740 738 735 733 730 728 726 724 723 722 721 719 717 715 713 710 708 706 703 700 697 693 691 689 687 684 681 677 673 670 668 665 663 662 663 665 669 673 677 679 682 684 686
754 755 755 756 756 756 757 757 757 758 758 758 759 760 761 762 763 764 764 765 765 766 766 766 766 765 765 765 764 763 762 761 758 756 754 752 750 748 746 744 743 741 739 738 735 733 730 728 726 725 724 723 721 720 718 716 714 712 710 708 706 703 700 698 696 694 692 689 687 684 679 675 672 670 669 668 667 667 669 672 675 677 681 683 684
753 752 752 753 754 754 755 755 755 756 756 757 758 759 760 762 762 763 763 764 764 765 765 765 764 764 764 764 764 763 762 760 758 755 753 752 750 749 747 745 742 741 739 737 735 734 731 730 729 727 726 725 724 723 721 718 717 715 712 710 708 706 704 702 700 698 696 693 691 688 685 681 678 677 675 674 673 673 673 674 676 679 681 684 685
751 750 751 752 752 753 754 754 753 754 754 755 756 757 758 761 762 763 763 764 764 764 764 764 764 763 763 763 763 763 761 759 757 755 753 751 750 748 747 745 742 740 739 737 736 735 734 733 732 731 729 728 727 726 724 722 720 718 716 714 712 709 708 706 704 702 700 697 695 693 690 688 687 685 683 682 682 681 681 681 682 684 686 688 690
750 750 750 750 751 752 752 752 752 752 752 753 753 754 756 758 760 762 763 763 764 764 764 764 764 763 763 763 762 762 761 759 757 755 752 750 749 748 747 745 743 741 739 738 738 737 736 736 735 734 733 732 730 729 727 725 723 721 719 717 715 713 711 709 707 706 704 702 700 698 696 695 694 692 691 691 690 689 688 689 689 689 690 692 694
750 750 750 750 750 751 750 750 750 750 750 751 751 752 753 755 756 758 760 761 763 764 764 764 763 762 763 763 762 761 760 759 757 754 752 750 749 747 746 745 744 742 740 740 740 740 739 739 738 737 736 735 733 732 730 728 726 724 722 720 718 716 714 712 710 708 707 706 704 702 700 699 698 697 696 695 695 694 694 693 694 693 694 695 697
749 749 750 750 750 749 749 749 749 748 749 750 751 751 752 752 753 755 756 758 760 762 763 763 762 762 762 762 762 761 760 759 757 754 752 750 749 748 746 746 745 744 743 743 743 743 743 742 741 740 739 738 737 735 733 731 729 727 725 723 721 718 716 714 713 711 710 709 708 706 704 702 701 700 699 698 698 698 698 698 698 698 698 699 700
749 748 749 749 749 748 748 748 748 748 749 750 751 751 751 752 752 754 754 755 757 758 760 760 761 761 761 761 761 761 760 759 757 755 753 751 750 749 748 747 746 746 746 746 746 746 746 745 744 743 742 741 740 738 737 735 733 731 729 727 725 722 720 718 716 715 713 713 711 709 707 706 705 704 703 702 702 702 703 702 702 702 702 703 703
749 748 748 748 748 748 748 748 748 749 750 750 751 751 752 752 752 753 754 755 756 757 758 760 760 760 761 761 761 760 760 759 758 756 755 753 751 750 750 750 749 749 749 750 750 749 749 748 748 747 746 744 743 741 740 738 736 734 732 730 728 726 724 722 720 718 717 716 714 713 711 710 709 708 707 706 706 706 706 706 706 706 706 706 707
749 748 748 748 748 748 748 748 748 749 750 750 751 751 752 753 753 754 756 757 757 758 759 761 761 761 761 762 761 760 759 759 758 757 756 755 753 753 753 753 752 752 752 752 752 752 751 751 750 749 748 747 745 744 742 741 739 737 735 734 732 730 728 725 723 721 720 719 718 717 716 715 713 712 711 710 709 709 709 709 709 709 709 710 710
749 748 748 748 748 748 748 748 748 749 750 751 752 753 753 755 756 757 757 758 759 760 761 762 763 763 762 762 761 760 759 759 759 758 758 757 757 756 756 755 755 755 755 755 754 754 754 753 753 752 751 750 748 747 745 743 742 740 739 737 735 733 731 729 727 725 724 723 722 721 720 719 718 717 716 715 714 713 713 712 712 712 713 713 713
748 748 748 748 748 748 748 748 749 750 750 752 752 753 755 756 757 758 758 759 760 761 762 763 764 764 763 763 761 760 760 760 760 760 760 759 759 759 759 758 758 758 757 757 756 756 756 756 755 754 753 752 750 749 748 746 745 743 742 740 738 737 736 734 732 730 729 727 726 724 723 722 721 720 719 718 718 717 717 716 716 716 715 715 715
748 748 749 748 748 748 748 749 750 750 751 753 754 754 756 757 758 759 759 760 760 761 762 764 764 764 764 763 762 761 761 761 761 761 761 761 761 761 761 761 760 760 759 759 758 758 758 757 757 756 755 754 753 751 750 749 747 746 745 743 741 740 739 737 736 734 733 732 730 728 727 726 725 724 723 722 721 720 720 719 719 718 718 717 716
748 749 749 749 750 750 749 750 751 751 753 754 754 755 757 757 758 759 760 759 760 761 762 764 765 765 764 763 763 763 763 763 763 763 763 763 763 763 762 762 762 761 761 761 760 760 759 759 759 758 757 756 755 754 752 751 750 748 747 746 744 743 741 740 739 737 736 735 734 732 731 730 729 728 727 726 724 723 723 722 721 721 720 720 718
749 749 750 750 751 751 752 752 752 753 754 755 756 757 757 758 759 759 759 760 761 762 763 764 765 765 765 765 764 764 764 764 764 764 764 765 765 764 764 763 763 763 763 762 761 761 760 760 760 759 759 758 757 756 755 754 752 751 750 748 747 745 744 743 741 740 738 737 736 735 735 733 732 731 730 729 728 727 726 724 724 723 723 722 721
750 750 751 751 752 753 754 754 754 754 754 755 756 757 758 759 760 759 760 761 762 762 763 764 764 765 765 765 765 765 765 765 765 766 766 766 766 765 765 764 764 764 764 763 762 761 761 761 761 760 760 759 758 757 757 756 754 753 752 751 749 748 746 745 744 743 741 740 739 738 737 736 735 734 733 732 731 730 729 728 727 726 725 724 723
751 751 752 752 753 754 754 754 755 755 755 756 756 757 758 759 759 759 760 761 762 763 763 763 763 764 765 765 765 766 766 766 766 767 766 767 767 766 766 765 765 765 765 764 763 762 762 761 761 761 760 760 759 759 758 757 756 756 755 753 752 751 749 747 747 745 744 743 742 741 740 739 738 737 736 735 734 733 732 731 730 729 728 727 726
752 752 752 753 754 754 754 755 755 755 755 756 756 757 758 758 758 759 761 761 762 762 762 762 762 763 764 765 766 766 766 767 767 767 767 767 767 767 767 767 766 766 765 765 764 764 763 763 762 762 761 761 760 760 759 759 758 758 757 755 754 753 751 749 748 747 746 745 744 743 742 741 740 739 738 737 736 735 735 734 733 732 731 730 729
753 753 753 754 754 754 755 755 756 756 756 756 757 757 758 758 759 760 761 761 761 761 761 761 762 763 763 764 765 765 765 766 766 766 767 768 767 767 768 767 767 766 766 765 765 765 764 764 763 763 762 762 761 761 760 760 759 759 758 756 755 754 752 750 749 748 747 747 746 746 744 743 742 741 740 739 738 737 736 736 735 734 733 732 730
754 754 754 755 755 755 755 755 755 755 756 756 756 757 757 758 759 759 760 760 760 760 761 761 762 763 763 764 764 764 765 765 765 765 766 767 767 767 768 767 767 767 766 766 766 765 765 765 764 764 763 763 762 762 761 761 760 759 759 757 756 754 753 751 750 749 748 747 748 747 746 745 744 743 741 740 739 738 738 737 736 735 734 733 731
753 753 753 754 754 754 754 754 754 754 755 755 756 756 757 758 758 759 759 759 760 761 761 761 762 763 763 764 765 765 765 766 766 766 766 767 767 767 767 767 767 767 767 767 767 766 766 766 765 765 764 764 763 763 762 762 761 760 759 757 756 755 753 751 750 749 748 748 749 749 747 746 745 744 743 742 741 740 739 738 737 736 735 734 733
752 752 752 753 753 754 754 754 754 754 754 755 756 756 757 758 758 759 759 760 760 761 761 762 762 763 764 764 765 765 766 766 766 766 767 767 767 767 767 768 768 767 767 767 767 767 767 767 766 766 765 765 765 764 764 763 762 761 759 757 756 755 754 752 751 750 749 748 749 749 748 747 746 745 744 743 742 741 740 739 738 737 736 735 734
752 753 753 753 754 754 755 754 754 755 755 755 756 756 757 757 758 759 759 760 760 761 761 762 762 763 764 764 765 766 766 766 767 767 767 767 768 768 768 768 768 768 768 768 768 768 768 767 767 767 766 766 766 765 765 764 763 761 760 758 757 756 754 753 752 751 750 749 749 750 750 748 748 747 746 745 744 742 742 741 739 738 737 736 735
Wind_Speed
8 8 7 6 7 7 7 7 7 7 7 7 8 8 8 8 8 8 9 10 11 11 11 12 12 12 12 12 11 11 10 10 10 10 10 11 11 12 12 12 13 15 17 18 19 19 20 22 24 28 30 29 29 28 26 25 24 27 31 32 31 31 29 24 18 15 18 22 21 21 21 21 20 17 17 19 18 16 18 19 18 16 15 15 16
8 8 7 7 7 7 7 7 7 7 8 8 8 8 8 8 8 9 10 10 11 11 12 12 12 12 12 12 11 10 11 10 9 9 10 11 12 12 12 13 14 16 18 19 20 20 20 21 23 28 31 32 33 34 29 27 25 25 27 28 29 30 29 25 20 16 17 20 21 21 21 22 22 19 17 17 17 16 16 17 18 16 15 14 13
8 7 7 7 8 8 8 7 8 8 8 9 9 9 9 9 8 9 11 11 11 12 12 12 12 12 12 12 11 10 10 10 10 10 10 11 12 13 13 14 14 16 18 20 21 22 23 24 25 27 29 30 34 36 30 28 29 28 27 26 27 30 30 26 23 21 20 20 20 20 20 22 23 22 19 17 16 16 16 17 17 16 16 15 14
7 7 7 8 8 8 8 8 8 9 9 9 9 9 10 9 9 10 11 12 13 13 13 12 12 12 12 12 11 11 10 10 10 10 10 11 12 13 14 14 14 17 19 20 22 24 25 27 27 27 28 28 31 35 32 28 28 29 32 32 29 31 33 30 28 26 22 21 20 21 21 21 21 21 19 17 16 17 17 17 17 17 18 19 19
8 8 8 8 8 8 9 9 9 9 9 9 9 10 10 11 11 12 12 13 13 13 13 12 12 12 12 12 12 12 11 11 11 11 10 11 12 13 14 13 15 18 19 21 23 25 26 28 28 29 29 28 31 33 29 26 26 28 34 36 33 34 35 32 30 29 25 22 21 20 20 20 19 18 17 18 18 17 17 17 17 17 17 19 19
8 8 8 8 8 9 9 9 9 9 9 9 9 10 11 12 12 12 12 13 14 13 13 13 13 13 13 13 13 13 13 13 12 11 11 11 12 13 13 13 15 18 19 21 23 25 26 28 29 30 30 30 33 35 30 28 27 27 32 35 34 36 36 31 28 27 25 24 23 21 21 21 19 17 17 18 19 18 18 18 18 17 17 19 19
8 8 8 8 8 9 9 9 9 9 9 9 10 11 12 12 13 13 13 14 15 14 14 13 14 13 13 13 14 15 15 14 13 11 10 11 12 12 12 13 15 17 19 21 23 24 25 27 29 31 32 30 31 35 35 31 27 25 29 33 35 37 36 30 26 26 25 24 23 22 22 21 20 19 17 17 18 18 18 19 18 18 19 19 20
9 9 9 9 9 9 9 9 9 9 9 10 11 11 12 12 13 13 14 15 15 15 14 14 14 13 13 13 14 14 14 14 12 10 9 10 11 11 11 13 15 17 19 21 22 23 24 26 28 29 31 32 32 36 38 32 26 26 30 32 34 36 36 31 25 23 24 23 21 22 23 22 21 20 18 17 18 19 20 20 18 17 19 20 19
10 9 9 9 9 9 9 9 9 9 10 10 11 11 12 12 13 13 14 15 15 15 15 15 15 14 13 13 13 13 13 12 11 10 10 10 10 11 12 12 14 16 18 20 21 22 23 25 28 29 31 34 34 34 38 37 33 30 29 30 33 33 31 27 22 21 22 22 22 21 21 22 22 21 19 19 19 19 20 20 19 17 19 21 19
10 10 10 9 9 9 9 9 9 10 10 10 11 12 11 12 13 14 15 15 15 14 14 15 14 14 13 12 12 12 11 11 12 12 12 11 10 10 12 13 14 15 16 19 21 22 24 25 28 31 32 33 33 27 25 30 34 35 33 33 34 31 25 22 21 21 22 22 24 23 21 22 24 24 21 21 22 21 19 19 19 18 18 18 15
11 11 10 9 9 9 9 9 9 10 11 10 11 12 11 11 13 14 14 14 14 14 14 14 14 13 13 12 11 12 11 11 13 14 12 11 10 10 12 13 14 14 15 19 21 22 23 25 29 32 31 30 31 27 23 22 24 29 34 36 38 35 29 23 22 25 25 24 25 25 22 22 25 25 23 22 22 21 20 19 19 18 16 15 13
11 11 10 9 9 9 9 9 10 10 11 11 11 11 10 12 13 14 13 13 13 14 14 14 14 13 12 12 12 12 12 12 14 14 12 11 11 11 12 13 13 13 14 18 20 21 23 25 29 30 29 30 28 24 26 31 29 25 26 31 37 40 39 33 28 29 29 27 25 24 24 24 25 24 24 23 22 20 20 19 19 18 16 16 16
11 11 10 10 10 9 10 10 10 11 11 10 11 10 10 11 12 12 12 12 12 13 13 13 13 12 12 13 13 13 13 13 14 15 13 12 12 12 13 13 13 13 15 17 18 20 24 25 27 29 30 29 26 23 26 30 31 31 28 25 30 37 41 41 38 35 31 27 23 24 26 26 24 24 25 24 22 20 20 20 19 18 17 18 19
11 11 11 10 10 10 10 11 11 11 11 11 10 10 10 11 11 11 11 11 12 12 12 13 13 13 13 14 14 13 13 13 14 15 13 11 12 13 13 13 12 13 15 16 17 21 25 24 24 27 28 25 23 25 28 28 30 32 29 23 23 30 37 41 43 43 41 35 28 27 30 30 26 25 25 25 25 22 19 21 21 20 19 19 20
12 12 11 10 11 11 11 11 12 11 11 11 10 10 10 10 10 10 10 10 11 12 12 13 13 13 13 13 14 14 14 13 14 15 12 11 11 12 13 13 12 13 15 16 16 19 23 24 24 27 26 22 22 27 31 31 30 29 27 25 22 24 32 37 39 41 43 41 36 33 35 34 29 26 24 24 24 22 19 19 19 18 17 18 19
13 12 11 11 11 11 11 11 11 11 11 10 10 10 10 10 10 10 10 10 11 11 12 12 12 13 13 13 14 14 14 14 15 15 12 11 11 12 12 12 13 14 16 17 16 17 19 20 23 26 25 23 24 28 31 32 30 26 26 27 24 22 28 33 36 38 39 40 40 39 37 34 30 27 25 23 22 23 21 18 17 18 18 16 17
14 13 12 12 11 11 11 11 11 11 11 10 10 10 10 10 10 10 10 10 11 11 11 12 12 13 14 13 13 13 14 14 15 15 13 12 12 13 13 13 14 14 17 19 18 18 19 19 21 23 24 25 29 31 30 31 30 27 25 27 26 23 24 28 33 38 40 40 41 41 39 36 32 29 28 27 25 24 21 18 19 23 20 14 13
14 14 13 12 11 10 11 11 12 12 11 11 10 10 10 10 10 10 10 11 11 11 11 11 12 13 14 14 13 13 15 14 14 15 13 12 13 15 15 15 15 16 18 20 19 19 20 21 21 21 23 26 30 31 30 32 32 29 27 27 27 24 22 23 26 33 38 39 41 43 41 39 37 33 31 30 29 27 23 19 21 24 20 15 14
15 14 13 11 10 10 11 12 12 12 12 11 11 10 10 10 10 9 10 10 10 10 11 12 13 14 14 14 13 12 13 13 13 14 13 11 14 15 14 15 16 16 16 19 20 20 20 20 21 22 23 26 28 29 29 30 32 32 30 28 26 24 24 23 23 26 31 36 40 42 42 41 41 39 35 32 32 31 29 24 21 20 20 19 19
14 13 12 11 10 10 11 12 12 12 13 12 11 11 10 10 10 9 10 11 10 10 11 13 14 14 14 14 13 12 12 12 12 12 11 10 11 13 12 13 14 14 14 17 20 20 20 21 22 23 24 25 26 27 28 27 29 30 30 28 26 27 29 27 25 25 27 31 36 38 40 39 39 39 36 34 35 35 33 30 25 22 21 21 21
13 12 12 11 11 11 10 11 11 12 13 12 12 11 10 10 10 9 10 10 9 10 12 13 14 14 14 14 13 11 11 12 11 10 10 8 8 10 10 11 12 12 13 15 17 19 20 21 23 24 25 24 24 26 26 25 26 27 28 28 29 30 32 26 20 21 25 28 31 32 35 33 33 35 33 32 36 38 36 34 31 27 26 24 22
13 13 11 11 11 11 10 10 10 11 12 13 12 12 11 10 10 10 9 9 9 10 11 12 13 14 14 13 13 10 9 11 11 9 8 8 7 8 10 11 12 12 12 13 16 18 19 20 23 24 24 23 23 24 23 23 24 25 27 30 31 32 33 25 16 16 20 24 26 26 29 30 28 30 32 34 39 40 38 36 34 30 28 26 22
14 13 11 11 11 11 10 9 9 10 11 13 13 13 12 11 10 9 8 8 8 9 11 11 12 14 13 13 13 10 7 9 10 9 8 8 8 9 10 11 13 13 13 14 16 18 19 21 23 24 23 21 21 21 21 22 24 25 27 31 32 31 33 29 24 24 18 15 24 25 27 29 28 27 31 37 38 37 35 34 33 32 30 29 26
14 12 11 11 12 11 10 9 9 9 11 12 13 14 12 11 10 9 8 8 8 9 11 11 11 13 13 13 13 11 9 8 9 10 11 11 10 10 10 11 12 13 14 16 17 17 19 21 22 22 21 19 17 17 18 20 23 25 27 30 31 31 33 33 29 30 28 13 16 27 31 31 29 27 32 36 34 32 33 33 31 30 30 29 30
14 12 11 11 12 11 10 9 8 9 11 12 14 14 13 12 11 9 8 8 8 9 10 11 11 12 12 12 12 11 10 9 7 9 13 13 11 11 11 11 11 12 14 16 16 16 18 20 19 17 17 16 14 14 16 19 23 26 27 29 32 32 34 35 31 27 28 26 14 16 28 31 32 31 30 32 30 28 29 30 28 27 26 26 28
12 11 11 11 11 11 10 9 8 9 11 14 14 14 13 12 10 9 8 8 8 8 10 11 11 11 11 12 12 11 11 9 7 10 15 15 12 11 12 12 12 13 14 15 16 18 19 18 15 13 14 14 13 13 14 16 20 25 27 28 30 32 33 33 32 26 24 28 27 15 2 9 23 29 25 23 25 25 26 28 26 25 25 25 25
10 10 11 11 11 11 10 9 8 9 11 14 15 14 13 12 11 10 9 9 9 8 9 10 10 10 11 11 11 11 10 9 9 13 18 18 16 14 12 12 14 14 14 15 17 18 19 16 14 12 12 13 12 12 13 15 17 22 26 27 28 30 31 31 30 28 27 27 28 27 26 21 5 13 21 24 24 23 26 29 26 23 24 26 23
10 10 11 11 10 10 9 8 7 9 12 14 12 10 10 10 9 7 6 6 7 7 8 8 8 9 10 10 10 11 10 8 10 16 20 20 17 15 12 12 14 15 15 15 16 17 17 14 12 10 9 10 10 11 13 17 18 20 23 25 27 28 31 32 30 30 30 29 29 29 30 31 27 14 6 21 24 22 26 29 26 23 23 22 18
9 9 9 10 10 9 8 9 9 9 11 12 7 4 4 5 3 4 5 6 6 6 6 5 5 7 8 7 7 8 8 9 12 17 18 16 14 11 11 12 13 14 14 13 14 15 15 12 11 10 10 10 10 11 13 16 19 21 21 22 25 26 28 30 29 28 28 27 28 29 27 27 30 30 20 8 10 19 26 27 23 21 21 19 15
8 9 10 11 11 10 8 9 9 8 10 10 6 7 4 5 5 5 5 5 5 5 5 4 4 4 4 5 7 8 8 10 13 16 15 12 9 8 10 12 12 13 12 10 10 12 12 11 11 12 11 11 12 12 13 15 18 22 22 21 23 25 25 26 26 26 26 26 25 26 27 27 28 30 30 26 20 14 14 15 14 14 15 14 13
8 10 10 10 9 8 8 10 9 8 10 9 6 9 7 6 6 5 4 4 3 3 3 2 2 2 2 2 4 7 9 10 12 14 13 9 7 7 10 12 12 10 9 8 8 9 10 11 12 12 12 12 13 14 14 15 17 20 21 22 23 23 23 23 24 24 25 25 25 25 27 28 30 30 29 28 28 26 23 20 17 14 11 9 9
9 10 10 9 7 8 10 11 10 9 10 9 8 10 10 8 7 5 4 3 3 1 0 1 2 4 5 4 3 5 9 11 12 12 11 9 7 6 8 12 11 7 5 7 8 9 10 11 12 13 13 13 14 14 15 15 16 17 18 20 22 23 22 20 20 22 24 24 24 25 26 27 27 28 29 28 26 25 25 24 24 23 21 19 17
8 9 9 8 7 8 10 11 11 11 11 11 10 11 12 11 10 9 7 5 4 3 1 2 3 4 5 5 5 7 10 12 12 11 11 9 7 5 6 12 13 11 10 10 10 10 12 12 12 13 14 14 14 15 15 15 15 16 16 16 19 22 23 21 18 19 22 23 23 24 26 26 24 24 25 26 24 22 21 20 20 21 21 19 17
7 8 8 8 8 8 9 10 10 11 11 10 10 12 13 13 14 14 12 9 7 5 3 1 1 3 4 5 7 8 10 12 12 11 10 8 4 3 6 10 12 14 15 14 12 11 12 13 13 14 14 14 15 16 16 16 16 16 17 16 17 20 24 24 24 22 21 22 23 23 23 24 23 21 21 22 22 21 19 18 18 18 19 18 17
6 6 6 7 7 8 8 9 9 10 9 8 8 10 12 14 15 16 15 13 11 10 9 7 3 1 3 4 7 9 10 13 13 12 11 9 8 7 7 7 9 13 15 15 14 13 13 13 13 14 14 14 15 15 16 16 17 17 17 17 17 19 21 23 24 23 21 21 22 23 23 24 23 20 19 20 20 20 19 17 16 16 17 18 17
5 6 5 5 6 7 7 7 7 7 6 7 8 9 10 11 13 14 14 12 11 10 8 7 5 0 3 5 7 8 10 12 14 14 14 14 13 11 10 9 10 12 14 14 13 13 13 13 14 14 14 15 15 15 15 16 16 17 17 17 17 18 19 20 22 22 19 19 21 22 23 24 23 20 18 19 19 18 17 17 15 14 14 15 15
5 5 4 4 4 5 5 4 4 4 4 5 6 7 7 7 7 8 7 5 4 4 4 3 3 1 2 5 6 7 8 9 12 13 15 16 15 13 12 12 12 12 13 13 13 13 13 13 13 14 15 15 16 16 16 16 16 16 17 17 17 18 18 19 21 21 19 18 19 20 20 22 21 19 18 19 19 17 16 15 14 12 9 9 10
5 5 5 5 4 3 2 2 2 3 4 4 4 4 5 6 6 6 7 6 4 4 3 1 1 1 3 5 5 5 5 6 7 9 12 15 15 14 13 13 13 13 13 14 13 13 13 13 13 14 14 15 16 17 17 17 17 17 17 16 17 19 20 20 20 21 20 19 19 19 18 19 19 18 17 18 18 16 14 13 12 11 8 6 5
4 5 5 5 4 2 2 2 4 4 5 5 5 6 7 9 9 8 8 8 6 4 3 2 1 2 4 5 5 4 4 5 6 8 10 12 13 13 13 14 14 14 13 13 13 13 12 12 13 13 13 14 15 16 17 17 17 17 18 17 16 18 20 20 20 20 20 20 20 20 19 19 18 17 16 16 16 16 16 14 12 10 8 8 7
2 1 0 2 2 2 2 3 5 6 6 7 8 9 9 10 9 9 8 8 5 4 3 2 2 4 5 5 6 5 4 5 6 7 8 10 10 11 12 13 13 13 13 13 13 13 12 12 12 12 13 13 14 14 15 16 16 16 17 17 17 17 18 18 19 19 19 19 19 19 19 19 19 18 17 16 15 16 18 17 15 12 10 9 8
2 3 4 4 4 5 6 6 7 8 9 9 10 10 9 9 8 8 7 5 4 3 2 2 3 5 5 5 6 7 6 5 6 7 8 9 9 9 10 10 11 11 11 12 12 11 11 11 12 12 12 13 13 13 14 15 15 16 16 17 17 17 17 18 18 18 18 18 19 19 19 19 18 18 18 18 16 15 16 16 15 14 12 11 9
4 5 6 5 5 6 8 9 10 10 9 9 8 8 8 8 7 6 4 3 2 2 2 2 3 4 5 6 8 8 7 6 7 7 8 8 9 9 9 9 10 10 10 10 10 10 10 11 11 11 12 12 13 13 14 14 15 15 15 16 17 18 17 17 18 19 18 17 18 18 19 18 18 17 17 17 17 16 15 15 14 14 14 13 11
5 6 6 6 7 7 9 9 10 9 9 9 8 7 7 6 5 4 3 2 1 2 2 3 3 3 4 6 8 8 6 6 7 7 7 7 8 9 9 9 10 9 9 9 9 9 10 10 10 10 11 12 12 12 13 13 14 14 15 15 16 17 17 17 18 19 18 17 17 17 17 17 17 17 16 17 16 16 16 16 15 14 14 13 13
6 7 8 8 8 8 8 8 8 8 9 9 9 7 6 5 4 3 3 3 3 3 3 3 3 4 3 4 5 5 5 6 6 7 7 7 7 8 9 9 9 9 9 9 10 11 10 9 9 10 10 10 11 11 11 12 13 14 15 15 15 16 16 16 17 17 17 16 15 16 16 16 16 16 16 15 15 15 15 16 16 15 14 13 12
6 7 8 7 7 7 7 6 7 8 8 8 8 7 6 5 4 4 3 4 4 3 3 3 3 3 3 3 4 5 5 6 6 6 6 6 6 6 7 7 7 7 7 8 10 11 11 10 9 9 10 10 10 10 11 11 12 13 14 14 15 15 15 16 15 15 15 14 14 14 15 14 14 14 14 14 13 13 13 14 14 14 14 14 13
6 6 7 6 6 6 5 5 5 6 6 5 6 6 5 5 4 4 4 4 4 4 4 4 4 4 4 4 4 5 5 5 5 5 4 4 4 4 4 5 5 5 6 7 8 9 10 10 10 10 10 10 10 10 11 11 11 12 13 14 15 15 15 15 15 14 13 13 13 13 13 13 12 12 13 12 11 11 11 11 11 12 12 13 12
6 6 5 5 5 6 6 5 5 5 5 5 5 5 5 5 5 5 5 5 5 5 5 5 4 4 4 4 4 4 4 4 3 3 3 3 3 3 3 4 4 5 6 7 8 8 9 9 9 9 9 9 10 10 10 11 11 11 12 14 16 17 16 15 14 13 11 11 11 12 12 12 11 11 12 12 11 10 10 10 10 10 11 11 12
6 5 4 4 4 4 5 5 5 5 5 5 5 5 5 5 5 6 6 6 5 5 5 5 5 5 4 4 4 3 3 2 2 2 2 2 2 2 2 3 3 4 5 6 7 8 9 9 9 9 9 9 9 9 10 10 11 11 12 14 16 17 16 16 14 12 11 10 11 11 11 11 11 11 11 12 11 11 10 10 9 9 10 10 11
2 2 2 2 2 2 2 3 3 4 4 4 5 5 5 5 5 6 6 6 6 5 5 5 5 5 4 4 3 3 3 2 2 2 2 2 2 2 2 2 3 4 4 5 6 7 7 8 8 8 8 8 8 8 9 9 10 11 13 15 16 16 16 15 14 12 11 10 9 10 10 10 10 10 10 11 11 11 11 11 10 10 9 9 10
3 4 4 4 4 3 2 2 3 3 4 4 5 5 5 5 6 6 6 6 6 5 5 5 5 5 4 4 3 3 3 2 2 2 3 3 3 3 3 3 3 3 4 5 5 5 6 6 7 7 7 7 7 7 8 8 9 11 13 15 16 16 15 15 14 13 12 11 9 10 9 9 9 10 10 11 11 11 11 11 11 10 10 10 10
2 2 3 3 2 2 2 2 3 3 4 4 4 5 5 5 6 6 6 6 6 5 5 5 5 4 4 4 3 3 3 2 2 3 3 3 3 3 3 3 3 3 3 3 4 4 5 5 5 6 6 6 6 6 6 7 8 10 12 15 16 16 15 15 14 12 13 13 10 9 9 9 9 9 10 11 11 10 10 11 11 10 9 10 10
Wind_Direction
225 231 236 242 248 250 252 257 266 273 274 274 279 286 293 300 305 306 305 305 306 304 304 305 302 301 302 303 306 310 311 310 308 306 305 305 306 307 309 310 307 307 307 304 301 297 292 289 286 283 278 271 265 261 255 245 238 237 237 234 233 234 232 233 239 247 246 245 249 250 248 246 243 236 235 241 241 234 231 229 223 222 225 228 237
223 231 238 244 250 250 249 254 263 270 272 273 275 281 286 292 300 304 306 307 307 305 305 305 300 297 295 295 297 302 307 307 306 304 302 303 307 310 311 310 309 309 308 306 304 301 297 291 286 285 283 277 269 263 255 247 245 246 240 233 232 234 234 232 233 240 245 241 241 244 242 239 238 235 233 236 238 234 230 227 224 221 220 222 228
223 228 239 247 251 249 248 255 264 270 273 274 277 283 289 293 297 301 306 308 306 304 303 301 298 294 290 289 287 291 300 304 303 303 302 304 308 310 311 309 309 310 309 307 305 303 301 296 291 288 285 280 272 265 257 248 246 249 247 241 238 237 234 230 229 234 243 242 236 237 238 235 236 235 232 231 233 234 232 230 226 218 213 216 224
234 232 241 250 251 248 248 256 266 271 275 277 280 287 294 299 302 303 306 308 306 304 300 297 295 292 288 287 283 282 291 296 299 301 304 306 307 308 309 308 308 309 307 306 305 303 301 298 295 293 289 284 275 266 258 250 244 244 246 244 241 240 237 233 232 234 239 241 236 234 235 235 235 234 229 227 230 231 232 233 228 220 218 223 229
239 240 245 252 251 248 250 257 265 271 275 279 285 292 300 304 304 304 304 306 305 303 298 294 291 287 286 286 282 280 284 288 290 295 301 305 306 307 308 307 308 308 307 306 306 305 303 301 299 297 293 288 280 271 260 250 245 244 246 245 239 238 237 233 233 235 236 238 236 233 234 234 232 228 221 222 228 230 230 230 229 225 222 223 227
241 244 250 255 253 249 252 257 265 270 273 279 287 294 299 300 301 303 306 307 307 304 301 297 291 286 282 283 282 279 280 282 282 286 295 302 306 307 307 308 310 309 308 308 308 309 309 308 304 298 294 289 284 280 270 256 249 246 244 242 237 236 236 231 229 233 234 234 235 232 231 232 229 224 216 215 222 228 228 229 231 228 223 219 220
238 243 251 256 253 251 254 258 264 269 274 279 286 291 295 297 299 302 305 306 305 304 304 301 295 289 284 283 283 281 279 278 275 277 285 296 304 305 306 310 312 311 310 308 309 313 314 313 310 304 300 295 288 286 279 264 252 247 244 242 237 235 235 232 227 230 232 232 233 232 230 229 228 225 218 212 217 224 227 229 230 227 223 220 217
231 238 246 250 250 252 256 260 262 267 275 282 287 292 296 297 296 296 298 301 302 303 305 304 300 295 290 287 287 286 282 276 271 271 279 293 302 303 306 311 312 312 312 310 312 317 318 315 313 309 305 301 294 288 283 274 263 254 248 244 238 233 233 232 228 229 233 233 231 230 230 229 228 225 218 212 216 221 223 227 231 227 225 225 217
228 235 239 243 247 250 254 258 261 267 275 282 290 296 298 296 295 294 295 297 298 300 302 304 303 299 295 291 289 288 284 276 269 267 277 293 300 301 306 309 311 313 312 313 317 320 319 316 315 315 313 311 307 294 280 275 277 270 257 249 245 238 233 232 229 228 230 232 230 229 229 228 226 223 217 212 215 220 219 223 230 229 227 228 220
224 230 235 239 244 248 251 253 258 266 274 283 293 298 297 296 297 297 297 295 295 298 300 302 302 301 299 297 293 292 288 277 270 270 283 297 298 299 303 304 308 313 313 315 320 320 317 316 320 323 321 320 326 322 293 277 276 274 268 262 259 251 237 229 229 229 229 229 229 228 228 229 227 224 222 217 216 220 218 216 222 224 224 228 223
222 227 232 236 239 244 248 251 258 266 274 285 294 295 294 297 300 300 299 297 295 298 300 300 301 302 301 299 298 298 295 283 275 278 289 298 298 296 299 302 306 309 312 317 319 316 314 317 324 329 327 326 332 338 334 321 302 283 272 266 264 260 251 237 228 227 230 231 229 226 227 231 230 226 226 223 219 220 218 214 216 217 218 224 226
222 225 228 232 235 241 246 250 257 264 274 289 295 293 292 297 302 302 299 298 298 299 300 300 301 300 297 297 298 301 303 297 290 288 289 294 297 296 295 299 302 301 308 317 316 313 315 319 324 329 331 331 332 335 340 341 337 323 297 274 263 258 254 249 239 231 230 231 230 228 228 231 231 227 225 224 221 218 216 214 215 214 214 220 226
222 224 226 230 233 240 245 249 258 266 275 288 291 289 293 298 302 302 298 298 298 299 300 301 300 298 297 297 298 301 307 309 302 295 290 289 294 296 294 295 296 297 303 309 311 315 319 320 323 327 330 332 334 337 339 338 336 333 322 296 272 260 254 251 247 241 236 233 232 232 231 231 231 228 225 224 222 218 214 213 213 212 213 218 224
222 223 224 228 232 240 246 251 260 267 275 283 284 285 291 296 301 302 300 300 300 301 304 305 303 302 300 299 300 302 306 308 305 298 290 284 291 298 297 291 290 294 299 302 306 314 320 320 319 324 328 330 334 338 340 338 334 330 323 306 283 265 255 250 247 244 242 239 239 237 235 234 233 229 227 224 221 218 215 213 212 210 213 217 223
223 223 224 228 233 240 246 253 261 267 271 274 277 281 286 292 299 301 302 303 305 306 307 307 307 306 304 302 302 303 305 306 306 300 286 277 288 298 297 291 291 296 300 303 304 309 316 319 319 323 325 326 332 339 339 337 333 328 322 312 294 269 254 247 241 239 237 236 237 236 235 235 235 232 230 225 220 218 218 217 215 214 215 218 220
223 224 224 228 233 238 247 256 260 263 265 266 271 279 285 291 298 300 300 303 305 307 309 311 312 311 310 307 303 303 305 305 305 301 284 273 284 292 291 292 297 299 303 309 310 309 312 314 316 321 323 322 328 336 340 338 332 328 326 322 310 284 260 247 239 235 233 231 232 233 234 236 236 234 232 227 220 218 220 219 218 223 222 215 214
224 226 226 228 233 240 249 256 256 257 259 260 268 276 281 289 296 296 297 301 305 308 310 313 315 314 312 309 303 304 307 305 304 301 287 273 280 288 289 293 296 298 304 311 314 312 312 312 313 315 317 322 329 333 338 340 335 330 328 327 321 305 278 258 245 239 235 232 230 230 231 234 233 232 232 232 226 219 215 212 213 221 224 213 210
225 228 229 229 233 241 249 252 251 252 254 256 264 273 278 286 292 292 293 298 302 305 308 310 314 314 312 310 308 307 308 306 303 301 292 276 276 285 291 296 299 300 305 311 313 313 314 316 318 317 318 324 330 333 336 338 336 332 328 326 324 317 300 279 258 243 235 232 231 231 231 231 230 229 229 231 230 223 218 215 215 219 220 211 211
223 228 229 230 234 239 246 248 246 248 250 252 260 269 276 282 286 286 289 292 295 300 305 310 312 312 312 312 310 306 305 307 305 302 297 282 278 285 292 297 302 303 305 308 311 312 314 317 322 325 326 328 330 331 334 336 336 332 329 325 321 317 311 300 278 255 237 227 226 228 228 229 229 229 228 229 229 225 223 222 221 224 223 217 215
222 228 230 232 233 235 239 242 242 244 247 249 256 264 271 278 282 284 288 292 297 303 308 311 311 312 313 313 313 310 307 308 306 301 298 290 286 292 295 296 299 302 304 307 308 309 312 316 321 326 329 329 329 330 331 335 336 334 331 327 322 321 321 309 287 271 251 228 217 219 223 225 227 227 226 227 226 225 225 224 225 229 229 224 220
217 222 227 232 233 233 235 238 240 243 245 248 252 258 264 271 274 276 283 291 298 302 306 310 310 312 314 312 313 313 307 305 303 298 296 294 297 307 309 305 302 301 303 305 303 303 309 313 316 322 327 327 328 329 332 335 339 338 335 333 333 336 336 321 295 283 266 235 213 210 216 219 223 222 220 221 222 221 221 222 223 226 228 226 223
212 216 224 233 234 231 233 236 239 243 246 245 245 251 259 261 262 266 276 288 295 297 304 309 307 309 311 311 312 313 305 301 302 299 297 297 302 314 318 316 314 309 303 301 300 302 309 312 314 319 324 326 326 329 334 340 342 341 341 343 347 352 351 345 334 317 284 240 213 206 208 209 216 219 216 217 220 219 219 220 219 221 225 224 223
211 215 224 232 231 230 231 231 234 243 247 244 242 247 251 251 251 256 265 279 289 294 300 303 303 305 310 313 316 317 311 303 298 297 306 308 305 311 318 319 319 314 306 303 307 310 312 315 317 319 322 324 325 331 339 344 346 347 349 354 358 0 1 3 5 360 336 252 214 205 204 205 208 211 212 215 218 217 216 218 217 217 221 223 225
213 217 223 228 227 228 229 230 236 246 250 245 242 243 244 244 246 249 256 269 282 292 297 299 301 305 311 315 318 321 324 316 301 298 310 313 308 311 319 319 317 315 311 309 312 314 315 318 320 320 321 324 329 338 347 350 352 354 358 2 5 6 7 8 9 10 7 340 231 209 204 206 208 210 213 213 212 211 212 215 217 218 220 224 228
212 215 220 223 224 227 230 232 236 246 252 249 242 237 236 239 242 243 248 259 271 283 292 297 301 305 310 316 321 326 329 327 319 316 320 321 317 315 317 317 317 316 315 314 316 319 319 320 322 323 326 331 336 346 356 359 360 2 4 6 10 12 13 11 7 8 11 4 331 228 210 211 213 214 215 211 206 206 209 212 216 219 220 225 229
208 212 216 219 224 228 230 230 231 241 249 247 238 233 234 239 243 243 246 255 263 275 287 294 300 306 311 316 323 329 330 332 337 334 330 332 332 324 318 320 322 322 321 321 324 325 325 329 334 335 340 350 356 359 2 4 5 7 9 10 12 15 16 15 10 6 8 8 3 359 336 222 217 213 209 202 197 199 201 204 210 214 214 218 220
201 204 212 220 227 229 228 229 236 247 249 241 233 231 232 236 241 240 245 256 263 272 286 294 300 307 312 317 323 326 330 340 348 341 336 336 335 332 331 329 326 326 328 324 322 326 331 338 340 337 342 355 3 7 12 13 11 12 13 13 13 15 17 19 17 13 13 13 10 17 31 35 11 218 205 197 194 195 198 200 204 205 204 205 206
203 209 219 225 229 228 227 230 237 248 250 242 236 235 236 240 244 234 226 245 262 274 288 296 302 309 313 320 326 326 333 350 350 340 337 334 330 331 337 334 325 324 325 320 322 331 339 340 335 333 340 350 354 3 13 16 17 18 18 17 17 17 18 20 21 19 18 18 15 18 31 37 31 22 199 195 192 192 195 197 201 202 198 196 198
210 219 225 227 230 229 232 241 241 242 244 236 213 194 230 238 216 191 203 227 250 266 278 288 304 316 323 336 343 340 340 343 339 336 336 334 330 334 343 338 329 325 322 319 325 335 338 339 344 352 356 354 354 359 5 10 16 21 23 22 21 21 21 21 20 19 20 22 21 19 24 31 31 29 34 74 157 178 186 192 198 199 194 191 194
219 228 231 236 240 234 237 251 248 238 245 236 181 144 177 196 174 183 216 232 243 255 261 266 288 312 330 340 342 345 345 337 334 338 341 339 337 347 353 348 335 325 322 321 321 325 332 345 359 2 360 359 360 358 357 1 8 13 19 23 22 22 23 23 22 22 23 25 25 24 24 26 29 29 28 33 48 82 127 153 167 174 177 179 181
230 239 239 238 235 230 244 263 257 237 245 242 182 140 144 163 166 182 202 199 205 238 252 265 304 346 35 17 333 336 345 345 342 341 340 336 337 347 358 359 347 330 330 337 331 332 348 2 7 5 3 5 5 1 359 360 1 3 10 17 19 19 21 23 24 25 26 26 25 27 28 28 29 30 29 30 37 49 63 74 83 90 96 100 106
239 246 243 235 224 226 244 257 253 240 238 228 185 156 151 145 131 127 145 161 169 186 236 354 17 32 54 71 50 356 351 353 350 342 334 328 323 331 360 13 8 360 13 14 3 5 14 15 13 11 8 8 8 6 4 4 4 4 9 13 15 17 18 20 22 27 29 27 25 26 28 30 31 33 33 34 38 46 54 61 66 70 72 69 66
250 252 250 245 238 238 244 248 246 244 241 227 202 182 171 159 149 149 152 148 135 120 68 9 25 41 47 46 38 19 4 358 352 343 337 327 313 321 17 28 27 38 53 43 26 24 26 23 20 18 15 12 12 10 8 9 8 9 11 10 11 16 20 24 27 29 30 29 27 25 26 28 31 36 37 37 39 43 49 56 63 66 68 67 63
258 259 261 263 256 250 251 250 247 248 246 233 209 189 179 174 172 168 160 151 149 153 154 164 3 27 42 36 27 20 14 10 7 3 359 355 353 30 48 38 33 42 50 46 37 32 29 26 24 22 19 17 16 14 14 14 12 12 12 10 7 11 19 27 32 31 30 31 31 30 29 29 29 33 38 39 37 36 40 48 56 60 63 64 64
260 256 255 261 263 260 260 260 260 258 251 231 205 191 188 188 185 180 173 173 181 185 176 169 172 329 351 13 24 24 21 22 23 24 30 41 50 53 52 43 37 41 45 44 40 36 31 27 25 22 18 17 16 15 15 14 13 13 12 11 8 8 14 21 25 25 26 29 29 30 33 34 31 30 37 41 37 31 30 34 43 53 62 66 67
270 264 250 249 261 269 270 269 267 261 244 224 213 210 209 205 199 194 190 189 191 188 177 167 164 128 351 360 14 17 18 24 26 27 37 49 50 45 43 44 43 42 42 41 40 38 35 32 26 21 19 15 12 12 11 10 10 11 10 10 11 11 12 15 16 16 20 26 28 27 30 33 32 32 37 43 41 34 29 29 33 42 57 68 73
286 286 281 273 275 279 278 270 254 236 224 220 220 218 212 204 190 180 174 169 170 166 157 162 177 183 355 358 4 5 10 22 27 27 34 42 45 45 47 46 45 45 45 41 39 38 36 33 29 26 24 19 14 12 11 9 8 8 8 9 12 13 13 15 17 17 19 23 26 26 25 27 29 31 35 39 39 35 30 28 29 31 42 60 67
287 288 282 278 280 277 261 227 187 185 188 187 187 178 156 135 124 125 125 122 131 143 130 110 187 248 339 347 352 360 8 19 27 28 32 37 41 44 48 48 46 47 45 41 39 39 37 34 31 30 29 26 22 20 17 14 13 11 10 10 12 14 15 16 16 18 19 20 21 23 23 23 24 27 32 35 33 28 25 24 23 21 20 22 32
282 287 274 260 255 253 223 176 159 166 172 165 154 140 125 115 111 111 113 115 118 118 108 83 46 30 12 360 358 2 12 26 36 38 39 42 44 46 47 48 47 44 42 39 37 37 37 35 32 30 29 27 26 24 21 18 17 15 14 15 16 17 18 16 14 14 15 15 15 18 20 22 22 23 28 32 29 25 23 21 18 17 10 359 356
267 289 232 188 185 165 146 149 152 150 145 136 131 128 123 119 119 119 116 117 119 108 93 81 55 42 31 23 24 28 33 44 49 46 45 49 51 50 49 48 45 42 39 37 36 35 37 36 32 29 27 25 24 24 22 19 18 17 18 20 20 19 19 19 17 16 14 13 12 13 15 17 19 20 22 23 23 26 26 20 15 19 21 11 3
193 133 113 113 120 117 116 122 127 126 124 124 124 124 121 119 122 125 122 122 125 112 88 79 66 49 40 54 66 62 57 60 59 55 54 56 56 56 55 51 46 41 38 36 35 34 35 36 34 30 27 25 23 22 21 19 19 19 20 20 20 19 19 19 19 18 16 15 14 13 12 13 16 18 18 16 16 24 28 22 16 17 19 19 21
145 134 124 120 121 122 121 123 123 122 121 120 118 118 119 120 124 130 130 129 137 135 117 103 86 64 57 74 81 74 67 67 65 61 63 64 60 58 57 52 45 41 37 34 34 33 33 35 35 31 29 27 25 23 23 21 19 18 18 19 20 19 18 16 16 16 16 17 15 13 11 11 13 15 16 16 16 19 23 24 23 19 15 16 27
126 124 124 124 125 124 125 127 127 125 120 115 109 107 112 116 121 127 134 143 170 168 146 129 117 100 80 77 79 76 71 70 68 67 70 69 62 58 56 53 49 46 41 36 36 35 34 34 33 32 31 31 29 27 27 24 22 19 18 17 17 18 17 15 12 12 13 14 14 11 9 9 12 14 15 16 18 19 19 20 23 22 17 17 26
112 115 117 118 120 124 128 129 128 125 122 119 117 115 120 126 130 141 155 164 169 168 158 147 140 135 116 90 82 78 75 75 76 78 80 77 68 60 56 54 53 51 46 43 44 46 44 39 34 32 33 33 32 33 33 31 29 26 22 19 16 16 15 13 8 6 7 7 6 6 6 6 9 12 13 15 18 20 20 20 20 20 19 21 26
116 121 123 126 130 135 134 129 127 129 133 131 128 132 143 148 146 150 163 165 163 163 160 156 150 137 124 113 101 90 87 90 91 89 86 81 72 59 50 49 51 49 44 42 44 45 45 41 36 33 31 30 32 34 35 35 35 32 29 26 21 17 15 12 6 2 4 6 4 1 1 3 6 8 10 13 16 18 18 18 19 18 19 20 20
113 120 126 131 129 126 123 124 127 134 137 133 130 138 148 145 139 148 161 165 167 167 164 161 159 146 131 125 120 111 107 105 98 91 85 79 69 54 40 40 47 49 46 43 42 41 40 38 35 33 31 29 30 31 33 35 38 36 33 31 28 24 24 22 12 3 3 5 2 359 358 360 2 5 7 9 13 16 15 15 15 15 16 18 15
100 103 110 117 119 118 120 124 127 128 130 133 137 143 143 135 134 146 158 164 169 168 158 147 145 144 140 138 136 130 125 120 110 102 94 78 63 50 37 33 38 45 47 45 41 39 39 37 34 34 33 31 31 32 31 33 36 35 32 29 26 25 29 28 19 10 10 7 359 356 0 2 1 4 5 6 9 12 12 13 14 12 10 13 13
112 115 117 124 136 140 139 139 141 139 138 141 142 141 138 138 141 149 156 159 160 157 150 142 140 140 138 135 132 127 120 115 110 105 96 85 71 50 36 33 40 45 47 46 42 40 40 37 34 33 33 31 32 33 32 31 33 31 27 24 22 22 26 29 26 26 30 21 2 356 3 6 3 4 6 5 6 7 7 9 14 14 11 10 10
169 177 176 184 201 193 167 155 155 150 143 145 146 143 142 146 150 153 154 152 150 149 148 146 144 142 135 131 130 127 119 113 109 98 90 91 96 88 71 63 60 54 51 51 47 43 41 37 34 33 32 30 31 32 32 33 32 25 22 22 21 20 24 29 29 31 39 32 8 358 5 8 4 6 9 7 7 8 7 5 7 9 11 13 12
259 259 255 253 252 240 203 167 155 149 146 149 149 148 147 149 152 153 152 151 150 151 150 145 143 141 136 132 130 123 114 108 104 103 102 98 97 98 96 87 78 70 64 60 53 46 42 38 34 31 31 30 30 31 32 34 28 18 16 20 21 19 23 29 29 32 44 44 19 2 7 10 7 10 12 9 7 9 9 7 6 6 8 12 12
235 243 241 233 223 210 186 166 152 149 151 151 147 148 152 153 151 151 154 155 154 151 149 146 146 142 136 132 127 120 113 108 102 105 110 110 105 105 104 97 86 76 69 62 53 45 42 36 29 27 28 27 28 32 33 27 15 8 14 22 20 14 18 26 27 33 49 52 31 6 7 13 12 14 15 11 7 8 7 5 6 7 8 10 11